Time,TemperatureF,DewpointF,PressureIn,WindDirection,WindDirectionDegrees,WindSpeedMPH,WindSpeedGustMPH,Humidity,HourlyPrecipIn,Conditions,Clouds,dailyrainin,SoftwareType,DateUTC
2013-04-01 00:00:00,31.0,19.5,29.92,NNW,339,4.0,4.0,62,0.00,,,0.00,Wunderground v.1.15,2013-04-01 05:00:00,
2013-04-01 00:10:00,30.8,19.3,29.93,NNW,348,4.0,4.0,62,0.00,,,0.00,Wunderground v.1.15,2013-04-01 05:10:00,
2013-04-01 00:15:00,30.7,19.2,29.93,North,360,3.0,4.0,62,0.00,,,0.00,Wunderground v.1.15,2013-04-01 05:15:00,
2013-04-01 00:20:00,30.6,19.5,29.93,North,360,3.0,3.0,63,0.00,,,0.00,Wunderground v.1.15,2013-04-01 05:20:00,
2013-04-01 00:25:00,30.5,19.0,29.93,NNW,347,3.0,3.0,62,0.00,,,0.00,Wunderground v.1.15,2013-04-01 05:25:00,
2013-04-01 00:30:00,30.4,19.3,29.93,NW,325,3.0,3.0,63,0.00,,,0.00,Wunderground v.1.15,2013-04-01 05:30:00,
2013-04-01 00:35:00,30.4,19.3,29.93,NNW,339,4.0,4.0,63,0.00,,,0.00,Wunderground v.1.15,2013-04-01 05:35:00,
2013-04-01 00:39:00,30.3,19.2,29.93,NNW,332,4.0,9.0,63,0.00,,,0.00,Wunderground v.1.15,2013-04-01 05:39:00,
2013-04-01 00:44:00,30.2,18.7,29.93,NNW,344,4.0,9.0,62,0.00,,,0.00,Wunderground v.1.15,2013-04-01 05:44:00,
2013-04-01 00:49:00,30.1,18.6,29.93,NW,308,4.0,6.0,62,0.00,,,0.00,Wunderground v.1.15,2013-04-01 05:49:00,
2013-04-01 00:54:00,30.1,18.6,29.94,NNW,340,4.0,6.0,62,0.00,,,0.00,Wunderground v.1.15,2013-04-01 05:54:00,
2013-04-01 01:00:00,30.0,18.9,29.94,NNW,336,4.0,4.0,63,0.00,,,0.00,Wunderground v.1.15,2013-04-01 06:00:00,
2013-04-01 01:04:00,29.9,18.5,29.95,NNW,342,4.0,5.0,62,0.00,,,0.00,Wunderground v.1.15,2013-04-01 06:04:00,
2013-04-01 01:09:00,29.9,18.5,29.95,NW,311,5.0,5.0,62,0.00,,,0.00,Wunderground v.1.15,2013-04-01 06:09:00,
2013-04-01 01:15:00,29.8,18.4,29.95,North,360,4.0,5.0,62,0.00,,,0.00,Wunderground v.1.15,2013-04-01 06:15:00,
2013-04-01 01:20:00,29.7,18.3,29.96,North,350,3.0,5.0,62,0.00,,,0.00,Wunderground v.1.15,2013-04-01 06:20:00,
2013-04-01 01:25:00,29.6,18.5,29.96,NNW,336,3.0,5.0,63,0.00,,,0.00,Wunderground v.1.15,2013-04-01 06:25:00,
2013-04-01 01:30:00,29.6,18.5,29.96,North,350,4.0,4.0,63,0.00,,,0.00,Wunderground v.1.15,2013-04-01 06:30:00,
2013-04-01 01:35:00,29.4,18.3,29.96,North,355,4.0,8.0,63,0.00,,,0.00,Wunderground v.1.15,2013-04-01 06:35:00,
2013-04-01 01:44:00,29.2,18.2,29.97,NNW,342,3.0,3.0,63,0.00,,,0.00,Wunderground v.1.15,2013-04-01 06:44:00,
2013-04-01 01:49:00,29.1,18.4,29.97,NNW,346,3.0,8.0,64,0.00,,,0.00,Wunderground v.1.15,2013-04-01 06:49:00,
2013-04-01 01:54:00,29.1,18.4,29.97,NNW,346,4.0,8.0,64,0.00,,,0.00,Wunderground v.1.15,2013-04-01 06:54:00,
2013-04-01 02:00:00,29.0,18.3,29.98,WNW,299,3.0,4.0,64,0.00,,,0.00,Wunderground v.1.15,2013-04-01 07:00:00,
2013-04-01 02:05:00,29.0,18.3,29.98,NNW,340,3.0,4.0,64,0.00,,,0.00,Wunderground v.1.15,2013-04-01 07:05:00,
2013-04-01 02:10:00,28.9,18.2,29.98,NNW,344,5.0,5.0,64,0.00,,,0.00,Wunderground v.1.15,2013-04-01 07:10:00,
2013-04-01 02:14:00,28.9,18.2,29.98,North,349,5.0,5.0,64,0.00,,,0.00,Wunderground v.1.15,2013-04-01 07:14:00,
2013-04-01 02:20:00,28.8,18.1,29.98,NNW,342,6.0,8.0,64,0.00,,,0.00,Wunderground v.1.15,2013-04-01 07:20:00,
2013-04-01 02:25:00,28.8,18.1,29.98,North,360,6.0,8.0,64,0.00,,,0.00,Wunderground v.1.15,2013-04-01 07:25:00,
2013-04-01 02:30:00,28.7,18.1,29.98,North,355,5.0,5.0,64,0.00,,,0.00,Wunderground v.1.15,2013-04-01 07:30:00,
2013-04-01 02:35:00,28.6,18.0,29.98,North,360,5.0,5.0,64,0.00,,,0.00,Wunderground v.1.15,2013-04-01 07:35:00,
2013-04-01 02:40:00,28.5,17.9,29.98,NW,320,3.0,3.0,64,0.00,,,0.00,Wunderground v.1.15,2013-04-01 07:40:00,
2013-04-01 02:45:00,28.5,17.9,29.98,NNW,331,0.0,3.0,64,0.00,,,0.00,Wunderground v.1.15,2013-04-01 07:45:00,
2013-04-01 02:49:00,28.4,18.1,29.99,North,355,0.0,0.0,65,0.00,,,0.00,Wunderground v.1.15,2013-04-01 07:49:00,
2013-04-01 02:54:00,28.3,18.0,29.99,NNW,341,0.0,0.0,65,0.00,,,0.00,Wunderground v.1.15,2013-04-01 07:54:00,
2013-04-01 03:00:00,28.1,18.2,29.99,North,360,0.0,0.0,66,0.00,,,0.00,Wunderground v.1.15,2013-04-01 08:00:00,
2013-04-01 04:35:00,27.2,15.9,30.02,North,5,2.0,4.0,62,0.00,,,0.00,Wunderground v.1.15,2013-04-01 09:35:00,
2013-04-01 04:40:00,27.1,16.2,30.03,NNE,14,0.0,0.0,63,0.00,,,0.00,Wunderground v.1.15,2013-04-01 09:40:00,
2013-04-01 04:45:00,27.0,16.4,30.03,North,360,0.0,0.0,64,0.00,,,0.00,Wunderground v.1.15,2013-04-01 09:45:00,
2013-04-01 04:50:00,26.9,16.3,30.03,NW,319,0.0,0.0,64,0.00,,,0.00,Wunderground v.1.15,2013-04-01 09:50:00,
2013-04-01 04:55:00,26.8,16.2,30.03,WNW,298,0.0,0.0,64,0.00,,,0.00,Wunderground v.1.15,2013-04-01 09:55:00,
2013-04-01 05:00:00,26.6,16.1,30.03,NNW,340,0.0,0.0,64,0.00,,,0.00,Wunderground v.1.15,2013-04-01 10:00:00,
2013-04-01 05:05:00,26.4,15.5,30.04,NNW,340,0.0,1.0,63,0.00,,,0.00,Wunderground v.1.15,2013-04-01 10:05:00,
2013-04-01 05:10:00,26.3,15.4,30.04,NNW,340,0.0,0.0,63,0.00,,,0.00,Wunderground v.1.15,2013-04-01 10:10:00,
2013-04-01 05:15:00,26.2,15.3,30.04,NNW,337,0.0,0.0,63,0.00,,,0.00,Wunderground v.1.15,2013-04-01 10:15:00,
2013-04-01 05:20:00,26.1,15.2,30.04,North,350,0.0,0.0,63,0.00,,,0.00,Wunderground v.1.15,2013-04-01 10:20:00,
2013-04-01 05:25:00,26.0,15.1,30.04,North,5,0.0,0.0,63,0.00,,,0.00,Wunderground v.1.15,2013-04-01 10:25:00,
2013-04-01 05:30:00,25.9,15.0,30.04,North,355,0.0,0.0,63,0.00,,,0.00,Wunderground v.1.15,2013-04-01 10:30:00,
2013-04-01 05:35:00,25.8,14.9,30.05,North,350,0.0,0.0,63,0.00,,,0.00,Wunderground v.1.15,2013-04-01 10:35:00,
2013-04-01 05:40:00,25.7,14.8,30.05,North,351,0.0,0.0,63,0.00,,,0.00,Wunderground v.1.15,2013-04-01 10:40:00,
2013-04-01 05:45:00,25.6,15.1,30.05,NNE,13,0.0,0.0,64,0.00,,,0.00,Wunderground v.1.15,2013-04-01 10:45:00,
2013-04-01 05:50:00,25.4,14.9,30.06,NNW,334,0.0,0.0,64,0.00,,,0.00,Wunderground v.1.15,2013-04-01 10:50:00,
2013-04-01 05:55:00,25.3,14.5,30.06,North,355,0.0,0.0,63,0.00,,,0.00,Wunderground v.1.15,2013-04-01 10:55:00,
2013-04-01 06:00:00,25.3,14.5,30.07,NNW,336,0.0,0.0,63,0.00,,,0.00,Wunderground v.1.15,2013-04-01 11:00:00,
2013-04-01 06:05:00,25.2,14.4,30.06,NNW,343,0.0,0.0,63,0.00,,,0.00,Wunderground v.1.15,2013-04-01 11:05:00,
2013-04-01 06:10:00,25.2,14.4,30.07,North,351,0.0,0.0,63,0.00,,,0.00,Wunderground v.1.15,2013-04-01 11:10:00,
2013-04-01 06:15:00,25.2,14.4,30.07,NW,314,0.0,0.0,63,0.00,,,0.00,Wunderground v.1.15,2013-04-01 11:15:00,
2013-04-01 06:20:00,25.1,14.6,30.07,North,355,0.0,0.0,64,0.00,,,0.00,Wunderground v.1.15,2013-04-01 11:20:00,
2013-04-01 06:25:00,24.9,14.4,30.07,North,360,0.0,0.0,64,0.00,,,0.00,Wunderground v.1.15,2013-04-01 11:25:00,
2013-04-01 06:30:00,24.8,14.7,30.07,North,360,0.0,0.0,65,0.00,,,0.00,Wunderground v.1.15,2013-04-01 11:30:00,
2013-04-01 06:35:00,24.7,14.9,30.07,North,355,0.0,0.0,66,0.00,,,0.00,Wunderground v.1.15,2013-04-01 11:35:00,
2013-04-01 06:40:00,24.5,15.1,30.07,NW,323,0.0,0.0,67,0.00,,,0.00,Wunderground v.1.15,2013-04-01 11:40:00,
2013-04-01 06:45:00,24.3,14.6,30.08,North,355,0.0,0.0,66,0.00,,,0.00,Wunderground v.1.15,2013-04-01 11:45:00,
2013-04-01 06:50:00,24.3,14.6,30.08,NNW,335,0.0,0.0,66,0.00,,,0.00,Wunderground v.1.15,2013-04-01 11:50:00,
2013-04-01 06:55:00,24.3,14.2,30.09,NNW,327,0.0,0.0,65,0.00,,,0.00,Wunderground v.1.15,2013-04-01 11:55:00,
2013-04-01 07:00:00,24.3,13.9,30.09,North,355,0.0,0.0,64,0.00,,,0.00,Wunderground v.1.15,2013-04-01 12:00:00,
2013-04-01 07:10:00,24.3,13.9,30.09,North,360,0.0,0.0,64,0.00,,,0.00,Wunderground v.1.15,2013-04-01 12:10:00,
2013-04-01 07:15:00,24.3,13.9,30.09,NNE,19,0.0,0.0,64,0.00,,,0.00,Wunderground v.1.15,2013-04-01 12:15:00,
2013-04-01 07:20:00,24.3,13.9,30.10,North,355,0.0,0.0,64,0.00,,,0.00,Wunderground v.1.15,2013-04-01 12:20:00,
2013-04-01 07:25:00,24.4,14.0,30.10,NNW,334,0.0,0.0,64,0.00,,,0.00,Wunderground v.1.15,2013-04-01 12:25:00,
2013-04-01 07:30:00,24.5,14.1,30.10,North,5,0.0,0.0,64,0.00,,,0.00,Wunderground v.1.15,2013-04-01 12:30:00,
2013-04-01 07:35:00,24.7,13.9,30.11,NNW,332,0.0,0.0,63,0.00,,,0.00,Wunderground v.1.15,2013-04-01 12:35:00,
2013-04-01 07:40:00,24.8,14.0,30.11,North,360,0.0,0.0,63,0.00,,,0.00,Wunderground v.1.15,2013-04-01 12:40:00,
2013-04-01 07:45:00,25.0,14.2,30.11,North,351,0.0,0.0,63,0.00,,,0.00,Wunderground v.1.15,2013-04-01 12:45:00,
2013-04-01 07:50:00,25.2,14.4,30.11,North,5,0.0,0.0,63,0.00,,,0.00,Wunderground v.1.15,2013-04-01 12:50:00,
2013-04-01 07:55:00,25.3,14.5,30.12,North,355,0.0,0.0,63,0.00,,,0.00,Wunderground v.1.15,2013-04-01 12:55:00,
2013-04-01 08:00:00,25.6,15.1,30.12,NNE,15,0.0,0.0,64,0.00,,,0.00,Wunderground v.1.15,2013-04-01 13:00:00,
2013-04-01 08:05:00,25.7,14.1,30.12,NNE,15,0.0,0.0,61,0.00,,,0.00,Wunderground v.1.15,2013-04-01 13:05:00,
2013-04-01 08:10:00,25.8,13.8,30.12,NNW,338,1.0,5.0,60,0.00,,,0.00,Wunderground v.1.15,2013-04-01 13:10:00,
2013-04-01 08:15:00,25.8,13.4,30.12,North,5,4.0,6.0,59,0.00,,,0.00,Wunderground v.1.15,2013-04-01 13:15:00,
2013-04-01 08:20:00,26.0,14.0,30.12,WNW,296,4.0,5.0,60,0.00,,,0.00,Wunderground v.1.15,2013-04-01 13:20:00,
2013-04-01 08:25:00,26.2,13.4,30.13,North,360,3.0,5.0,58,0.00,,,0.00,Wunderground v.1.15,2013-04-01 13:25:00,
2013-04-01 08:30:00,26.4,14.0,30.13,NNW,340,3.0,3.0,59,0.00,,,0.00,Wunderground v.1.15,2013-04-01 13:30:00,
2013-04-01 08:35:00,26.6,13.4,30.13,North,355,3.0,6.0,57,0.00,,,0.00,Wunderground v.1.15,2013-04-01 13:35:00,
2013-04-01 08:40:00,26.7,13.9,30.13,North,5,5.0,7.0,58,0.00,,,0.00,Wunderground v.1.15,2013-04-01 13:40:00,
2013-04-01 08:45:00,26.9,13.3,30.13,NNW,336,5.0,7.0,56,0.00,,,0.00,Wunderground v.1.15,2013-04-01 13:45:00,
2013-04-01 08:50:00,27.0,12.5,30.13,NNE,18,7.0,7.0,54,0.00,,,0.00,Wunderground v.1.15,2013-04-01 13:50:00,
2013-04-01 08:55:00,27.0,12.5,30.13,North,360,7.0,7.0,54,0.00,,,0.00,Wunderground v.1.15,2013-04-01 13:55:00,
2013-04-01 09:00:00,27.2,13.1,30.14,NNW,327,5.0,8.0,55,0.00,,,0.00,Wunderground v.1.15,2013-04-01 14:00:00,
2013-04-01 09:05:00,27.4,13.3,30.13,North,350,5.0,8.0,55,0.00,,,0.00,Wunderground v.1.15,2013-04-01 14:05:00,
2013-04-01 09:10:00,27.6,12.7,30.14,North,360,6.0,6.0,53,0.00,,,0.00,Wunderground v.1.15,2013-04-01 14:10:00,
2013-04-01 09:15:00,27.8,13.3,30.14,NNW,346,5.0,15.0,54,0.00,,,0.00,Wunderground v.1.15,2013-04-01 14:15:00,
2013-04-01 09:20:00,27.9,13.0,30.14,NNW,336,7.0,7.0,53,0.00,,,0.00,Wunderground v.1.15,2013-04-01 14:20:00,
2013-04-01 09:25:00,27.9,13.4,30.14,North,5,7.0,14.0,54,0.00,,,0.00,Wunderground v.1.15,2013-04-01 14:25:00,
2013-04-01 09:30:00,28.1,13.1,30.14,North,355,6.0,9.0,53,0.00,,,0.00,Wunderground v.1.15,2013-04-01 14:30:00,
2013-04-01 09:35:00,28.1,12.7,30.14,North,355,6.0,9.0,52,0.00,,,0.00,Wunderground v.1.15,2013-04-01 14:35:00,
2013-04-01 09:40:00,28.1,12.7,30.14,NNW,337,7.0,7.0,52,0.00,,,0.00,Wunderground v.1.15,2013-04-01 14:40:00,
2013-04-01 09:45:00,28.3,12.9,30.14,NW,318,7.0,8.0,52,0.00,,,0.00,Wunderground v.1.15,2013-04-01 14:45:00,
2013-04-01 09:50:00,28.4,13.4,30.14,North,355,7.0,7.0,53,0.00,,,0.00,Wunderground v.1.15,2013-04-01 14:50:00,
2013-04-01 09:55:00,28.5,13.1,30.14,North,355,6.0,7.0,52,0.00,,,0.00,Wunderground v.1.15,2013-04-01 14:55:00,
2013-04-01 10:00:00,28.8,13.4,30.14,WNW,302,5.0,5.0,52,0.00,,,0.00,Wunderground v.1.15,2013-04-01 15:00:00,
2013-04-01 10:05:00,28.9,13.5,30.14,North,11,5.0,9.0,52,0.00,,,0.00,Wunderground v.1.15,2013-04-01 15:05:00,
2013-04-01 10:10:00,29.2,13.3,30.14,NNW,338,6.0,6.0,51,0.00,,,0.00,Wunderground v.1.15,2013-04-01 15:10:00,
2013-04-01 10:15:00,29.6,13.7,30.14,WNW,294,7.0,7.0,51,0.00,,,0.00,Wunderground v.1.15,2013-04-01 15:15:00,
2013-04-01 10:25:00,30.8,14.8,30.15,NNE,12,5.0,7.0,51,0.00,,,0.00,Wunderground v.1.15,2013-04-01 15:25:00,
2013-04-01 10:30:00,31.0,15.8,30.15,WSW,250,4.0,4.0,53,0.00,,,0.00,Wunderground v.1.15,2013-04-01 15:30:00,
2013-04-01 10:35:00,31.2,15.6,30.15,NNW,342,3.0,9.0,52,0.00,,,0.00,Wunderground v.1.15,2013-04-01 15:35:00,
2013-04-01 10:40:00,31.2,15.6,30.15,North,355,4.0,6.0,52,0.00,,,0.00,Wunderground v.1.15,2013-04-01 15:40:00,
2013-04-01 10:45:00,31.7,15.2,30.15,NNE,21,5.0,6.0,50,0.00,,,0.00,Wunderground v.1.15,2013-04-01 15:45:00,
2013-04-01 10:50:00,31.9,15.8,30.15,NW,326,6.0,6.0,51,0.00,,,0.00,Wunderground v.1.15,2013-04-01 15:50:00,
2013-04-01 10:55:00,31.7,15.2,30.15,NNE,29,6.0,6.0,50,0.00,,,0.00,Wunderground v.1.15,2013-04-01 15:55:00,
2013-04-01 11:00:00,32.1,16.4,30.15,WNW,302,5.0,5.0,52,0.00,,,0.00,Wunderground v.1.15,2013-04-01 16:00:00,
2013-04-01 11:05:00,32.8,16.2,30.15,WNW,303,2.0,5.0,50,0.00,,,0.00,Wunderground v.1.15,2013-04-01 16:05:00,
2013-04-01 11:10:00,32.6,16.4,30.15,NW,311,3.0,5.0,51,0.00,,,0.00,Wunderground v.1.15,2013-04-01 16:10:00,
2013-04-01 11:15:00,32.3,16.2,30.15,West,281,4.0,5.0,51,0.00,,,0.00,Wunderground v.1.15,2013-04-01 16:15:00,
2013-04-01 11:25:00,32.4,15.3,30.15,NNW,344,4.0,8.0,49,0.00,,,0.00,Wunderground v.1.15,2013-04-01 16:25:00,
2013-04-01 11:30:00,32.6,16.9,30.15,NW,326,4.0,7.0,52,0.00,,,0.00,Wunderground v.1.15,2013-04-01 16:30:00,
2013-04-01 11:35:00,33.0,16.4,30.15,NW,304,4.0,7.0,50,0.00,,,0.00,Wunderground v.1.15,2013-04-01 16:35:00,
2013-04-01 11:40:00,33.3,17.1,30.15,SW,215,4.0,7.0,51,0.00,,,0.00,Wunderground v.1.15,2013-04-01 16:40:00,
2013-04-01 11:45:00,33.4,16.3,30.16,West,280,4.0,7.0,49,0.00,,,0.00,Wunderground v.1.15,2013-04-01 16:45:00,
2013-04-01 11:50:00,33.7,16.1,30.15,NNE,14,5.0,5.0,48,0.00,,,0.00,Wunderground v.1.15,2013-04-01 16:50:00,
2013-04-01 11:55:00,33.7,17.9,30.15,NNW,338,5.0,5.0,52,0.00,,,0.00,Wunderground v.1.15,2013-04-01 16:55:00,
2013-04-01 12:00:00,34.3,17.6,30.15,NE,52,5.0,5.0,50,0.00,,,0.00,Wunderground v.1.15,2013-04-01 17:00:00,
2013-04-01 12:05:00,34.4,17.7,30.16,North,360,6.0,6.0,50,0.00,,,0.00,Wunderground v.1.15,2013-04-01 17:05:00,
2013-04-01 12:10:00,34.1,16.9,30.16,North,5,5.0,6.0,49,0.00,,,0.00,Wunderground v.1.15,2013-04-01 17:10:00,
2013-04-01 12:15:00,34.1,16.9,30.16,North,5,5.0,6.0,49,0.00,,,0.00,Wunderground v.1.15,2013-04-01 17:15:00,
2013-04-01 12:20:00,34.3,17.1,30.16,NNW,347,7.0,7.0,49,0.00,,,0.00,Wunderground v.1.15,2013-04-01 17:20:00,
2013-04-01 12:30:00,34.4,16.2,30.16,NNE,23,5.0,7.0,47,0.00,,,0.00,Wunderground v.1.15,2013-04-01 17:30:00,
2013-04-01 12:35:00,34.5,16.8,30.15,North,360,7.0,7.0,48,0.00,,,0.00,Wunderground v.1.15,2013-04-01 17:35:00,
2013-04-01 12:40:00,34.9,17.2,30.16,North,355,6.0,6.0,48,0.00,,,0.00,Wunderground v.1.15,2013-04-01 17:40:00,
2013-04-01 12:45:00,35.1,17.4,30.15,NNW,344,5.0,6.0,48,0.00,,,0.00,Wunderground v.1.15,2013-04-01 17:45:00,
2013-04-01 12:50:00,35.4,18.1,30.15,NW,309,4.0,6.0,49,0.00,,,0.00,Wunderground v.1.15,2013-04-01 17:50:00,
2013-04-01 12:55:00,35.5,18.2,30.15,NNW,346,5.0,6.0,49,0.00,,,0.00,Wunderground v.1.15,2013-04-01 17:55:00,
2013-04-01 13:00:00,35.9,19.5,30.16,WNW,302,5.0,5.0,51,0.00,,,0.00,Wunderground v.1.15,2013-04-01 18:00:00,
2013-04-01 13:05:00,36.2,18.4,30.16,NNW,335,4.0,12.0,48,0.00,,,0.00,Wunderground v.1.15,2013-04-01 18:05:00,
2013-04-01 13:10:00,36.1,16.8,30.16,NNW,343,6.0,6.0,45,0.00,,,0.00,Wunderground v.1.15,2013-04-01 18:10:00,
2013-04-01 13:15:00,36.0,17.2,30.16,NNW,347,6.0,6.0,46,0.00,,,0.00,Wunderground v.1.15,2013-04-01 18:15:00,
2013-04-01 13:20:00,36.0,17.2,30.16,NW,311,7.0,7.0,46,0.00,,,0.00,Wunderground v.1.15,2013-04-01 18:20:00,
2013-04-01 13:25:00,36.2,18.4,30.15,NW,309,6.0,7.0,48,0.00,,,0.00,Wunderground v.1.15,2013-04-01 18:25:00,
2013-04-01 13:35:00,36.5,18.6,30.15,NNW,346,5.0,8.0,48,0.00,,,0.00,Wunderground v.1.15,2013-04-01 18:35:00,
2013-04-01 13:40:00,36.9,18.5,30.15,NNW,344,5.0,5.0,47,0.00,,,0.00,Wunderground v.1.15,2013-04-01 18:40:00,
2013-04-01 13:45:00,37.1,18.2,30.15,NNW,341,5.0,5.0,46,0.00,,,0.00,Wunderground v.1.15,2013-04-01 18:45:00,
2013-04-01 13:50:00,37.4,18.5,30.15,NNW,331,4.0,4.0,46,0.00,,,0.00,Wunderground v.1.15,2013-04-01 18:50:00,
2013-04-01 13:55:00,37.8,19.3,30.15,NNW,340,3.0,9.0,47,0.00,,,0.00,Wunderground v.1.15,2013-04-01 18:55:00,
2013-04-01 14:00:00,37.9,16.8,30.15,NW,315,5.0,5.0,42,0.00,,,0.00,Wunderground v.1.15,2013-04-01 19:00:00,
2013-04-01 14:10:00,37.9,18.4,30.15,NNW,329,5.0,5.0,45,0.00,,,0.00,Wunderground v.1.15,2013-04-01 19:10:00,
2013-04-01 14:15:00,38.0,18.5,30.15,West,268,5.0,7.0,45,0.00,,,0.00,Wunderground v.1.15,2013-04-01 19:15:00,
2013-04-01 14:20:00,38.0,17.5,30.15,West,275,6.0,6.0,43,0.00,,,0.00,Wunderground v.1.15,2013-04-01 19:20:00,
2013-04-01 14:25:00,37.8,17.3,30.15,NNW,339,7.0,9.0,43,0.00,,,0.00,Wunderground v.1.15,2013-04-01 19:25:00,
2013-04-01 14:30:00,37.8,17.3,30.15,WNW,296,6.0,6.0,43,0.00,,,0.00,Wunderground v.1.15,2013-04-01 19:30:00,
2013-04-01 14:35:00,38.0,17.5,30.14,NNW,327,5.0,11.0,43,0.00,,,0.00,Wunderground v.1.15,2013-04-01 19:35:00,
2013-04-01 14:40:00,38.1,18.6,30.14,North,5,6.0,6.0,45,0.00,,,0.00,Wunderground v.1.15,2013-04-01 19:40:00,
2013-04-01 14:45:00,38.0,18.0,30.15,WNW,287,7.0,7.0,44,0.00,,,0.00,Wunderground v.1.15,2013-04-01 19:45:00,
2013-04-01 14:50:00,38.0,18.0,30.14,West,269,6.0,6.0,44,0.00,,,0.00,Wunderground v.1.15,2013-04-01 19:50:00,
2013-04-01 14:55:00,37.9,17.9,30.14,NW,323,4.0,6.0,44,0.00,,,0.00,Wunderground v.1.15,2013-04-01 19:55:00,
2013-04-01 15:00:00,38.1,18.1,30.14,NNW,344,5.0,7.0,44,0.00,,,0.00,Wunderground v.1.15,2013-04-01 20:00:00,
2013-04-01 15:05:00,38.1,17.0,30.14,North,5,6.0,7.0,42,0.00,,,0.00,Wunderground v.1.15,2013-04-01 20:05:00,
2013-04-01 15:10:00,38.0,16.4,30.14,NNW,348,6.0,7.0,41,0.00,,,0.00,Wunderground v.1.15,2013-04-01 20:10:00,
2013-04-01 15:15:00,37.9,16.8,30.14,North,355,6.0,8.0,42,0.00,,,0.00,Wunderground v.1.15,2013-04-01 20:15:00,
2013-04-01 15:20:00,38.1,17.0,30.14,NW,309,5.0,5.0,42,0.00,,,0.00,Wunderground v.1.15,2013-04-01 20:20:00,
2013-04-01 15:25:00,38.1,18.1,30.14,WNW,302,4.0,5.0,44,0.00,,,0.00,Wunderground v.1.15,2013-04-01 20:25:00,
2013-04-01 15:30:00,38.1,16.4,30.14,NW,307,5.0,5.0,41,0.00,,,0.00,Wunderground v.1.15,2013-04-01 20:30:00,
2013-04-01 15:35:00,37.9,15.7,30.14,WNW,300,5.0,5.0,40,0.00,,,0.00,Wunderground v.1.15,2013-04-01 20:35:00,
2013-04-01 15:45:00,38.2,17.1,30.14,WNW,289,3.0,3.0,42,0.00,,,0.00,Wunderground v.1.15,2013-04-01 20:45:00,
2013-04-01 15:50:00,38.3,17.7,30.14,NNW,329,4.0,8.0,43,0.00,,,0.00,Wunderground v.1.15,2013-04-01 20:50:00,
2013-04-01 15:55:00,38.5,17.9,30.14,WNW,283,5.0,8.0,43,0.00,,,0.00,Wunderground v.1.15,2013-04-01 20:55:00,
2013-04-01 16:00:00,38.7,15.2,30.14,NNW,330,5.0,5.0,38,0.00,,,0.00,Wunderground v.1.15,2013-04-01 21:00:00,
2013-04-01 16:05:00,38.5,16.2,30.14,NW,309,5.0,5.0,40,0.00,,,0.00,Wunderground v.1.15,2013-04-01 21:05:00,
2013-04-01 16:10:00,38.5,16.8,30.14,NNE,12,5.0,9.0,41,0.00,,,0.00,Wunderground v.1.15,2013-04-01 21:10:00,
2013-04-01 16:20:00,38.0,15.8,30.14,West,264,7.0,7.0,40,0.00,,,0.00,Wunderground v.1.15,2013-04-01 21:20:00,
2013-04-01 16:25:00,37.7,16.1,30.14,NNE,14,7.0,8.0,41,0.00,,,0.00,Wunderground v.1.15,2013-04-01 21:25:00,
2013-04-01 16:35:00,37.9,15.7,30.14,NW,318,5.0,6.0,40,0.00,,,0.00,Wunderground v.1.15,2013-04-01 21:35:00,
2013-04-01 16:40:00,38.0,15.8,30.14,North,5,6.0,12.0,40,0.00,,,0.00,Wunderground v.1.15,2013-04-01 21:40:00,
2013-04-01 16:45:00,38.0,15.8,30.14,West,274,6.0,12.0,40,0.00,,,0.00,Wunderground v.1.15,2013-04-01 21:45:00,
2013-04-01 16:50:00,37.8,16.2,30.14,NW,309,6.0,6.0,41,0.00,,,0.00,Wunderground v.1.15,2013-04-01 21:50:00,
2013-04-01 16:55:00,37.7,16.1,30.14,NNW,339,5.0,6.0,41,0.00,,,0.00,Wunderground v.1.15,2013-04-01 21:55:00,
2013-04-01 17:00:00,37.8,16.2,30.15,WSW,246,4.0,9.0,41,0.00,,,0.00,Wunderground v.1.15,2013-04-01 22:00:00,
2013-04-01 17:05:00,38.0,15.8,30.14,North,5,4.0,9.0,40,0.00,,,0.00,Wunderground v.1.15,2013-04-01 22:05:00,
2013-04-01 17:10:00,38.1,15.9,30.15,WNW,284,3.0,4.0,40,0.00,,,0.00,Wunderground v.1.15,2013-04-01 22:10:00,
2013-04-01 17:15:00,37.9,16.3,30.15,NNW,344,4.0,4.0,41,0.00,,,0.00,Wunderground v.1.15,2013-04-01 22:15:00,
2013-04-01 17:20:00,37.7,15.5,30.15,WNW,286,4.0,5.0,40,0.00,,,0.00,Wunderground v.1.15,2013-04-01 22:20:00,
2013-04-01 17:25:00,37.4,15.8,30.15,WNW,292,4.0,5.0,41,0.00,,,0.00,Wunderground v.1.15,2013-04-01 22:25:00,
2013-04-01 17:30:00,37.1,15.0,30.15,NW,311,4.0,4.0,40,0.00,,,0.00,Wunderground v.1.15,2013-04-01 22:30:00,
2013-04-01 17:35:00,37.0,15.5,30.15,NW,307,4.0,8.0,41,0.00,,,0.00,Wunderground v.1.15,2013-04-01 22:35:00,
2013-04-01 17:40:00,36.7,15.2,30.15,NNW,337,5.0,5.0,41,0.00,,,0.00,Wunderground v.1.15,2013-04-01 22:40:00,
2013-04-01 17:45:00,36.6,15.1,30.15,NE,34,4.0,7.0,41,0.00,,,0.00,Wunderground v.1.15,2013-04-01 22:45:00,
2013-04-01 17:50:00,36.4,14.3,30.15,West,278,4.0,7.0,40,0.00,,,0.00,Wunderground v.1.15,2013-04-01 22:50:00,
2013-04-01 17:55:00,36.0,14.5,30.15,WNW,284,5.0,7.0,41,0.00,,,0.00,Wunderground v.1.15,2013-04-01 22:55:00,
2013-04-01 18:00:00,35.7,14.3,30.15,NW,321,5.0,5.0,41,0.00,,,0.00,Wunderground v.1.15,2013-04-01 23:00:00,
2013-04-01 18:05:00,35.3,12.8,30.15,NW,309,5.0,5.0,39,0.00,,,0.00,Wunderground v.1.15,2013-04-01 23:05:00,
2013-04-01 18:10:00,34.8,13.5,30.15,North,360,5.0,5.0,41,0.00,,,0.00,Wunderground v.1.15,2013-04-01 23:10:00,
2013-04-01 18:15:00,34.4,13.6,30.15,WNW,303,4.0,5.0,42,0.00,,,0.00,Wunderground v.1.15,2013-04-01 23:15:00,
2013-04-01 18:20:00,34.4,14.2,30.15,NW,323,3.0,4.0,43,0.00,,,0.00,Wunderground v.1.15,2013-04-01 23:20:00,
2013-04-01 18:25:00,33.8,12.6,30.15,North,355,5.0,5.0,41,0.00,,,0.00,Wunderground v.1.15,2013-04-01 23:25:00,
2013-04-01 18:30:00,33.4,12.2,30.15,West,279,5.0,5.0,41,0.00,,,0.00,Wunderground v.1.15,2013-04-01 23:30:00,
2013-04-01 18:35:00,33.2,13.1,30.15,WNW,298,3.0,7.0,43,0.00,,,0.00,Wunderground v.1.15,2013-04-01 23:35:00,
2013-04-01 18:40:00,33.0,12.9,30.15,West,271,2.0,2.0,43,0.00,,,0.00,Wunderground v.1.15,2013-04-01 23:40:00,
2013-04-01 18:50:00,32.5,12.5,30.15,North,5,3.0,7.0,43,0.00,,,0.00,Wunderground v.1.15,2013-04-01 23:50:00,
2013-04-01 18:55:00,32.3,11.7,30.15,North,349,4.0,7.0,42,0.00,,,0.00,Wunderground v.1.15,2013-04-01 23:55:00,
2013-04-01 19:00:00,32.1,13.1,30.15,NNW,334,4.0,4.0,45,0.00,,,0.00,Wunderground v.1.15,2013-04-02 00:00:00,
2013-04-01 19:10:00,31.7,12.8,30.15,NNW,327,4.0,4.0,45,0.00,,,0.00,Wunderground v.1.15,2013-04-02 00:10:00,
2013-04-01 19:15:00,31.5,12.6,30.15,North,5,4.0,7.0,45,0.00,,,0.00,Wunderground v.1.15,2013-04-02 00:15:00,
2013-04-01 19:20:00,31.2,12.8,30.15,NW,322,4.0,4.0,46,0.00,,,0.00,Wunderground v.1.15,2013-04-02 00:20:00,
2013-04-01 19:25:00,31.0,12.1,30.15,North,5,3.0,4.0,45,0.00,,,0.00,Wunderground v.1.15,2013-04-02 00:25:00,
2013-04-01 19:30:00,30.8,12.9,30.15,NNW,331,2.0,4.0,47,0.00,,,0.00,Wunderground v.1.15,2013-04-02 00:30:00,
2013-04-01 19:35:00,30.6,12.2,30.16,North,355,3.0,4.0,46,0.00,,,0.00,Wunderground v.1.15,2013-04-02 00:35:00,
2013-04-01 19:40:00,30.4,12.1,30.16,NNW,335,3.0,3.0,46,0.00,,,0.00,Wunderground v.1.15,2013-04-02 00:40:00,
2013-04-01 19:45:00,30.3,12.5,30.16,North,355,2.0,3.0,47,0.00,,,0.00,Wunderground v.1.15,2013-04-02 00:45:00,
2013-04-01 19:50:00,30.1,12.3,30.16,NW,304,2.0,6.0,47,0.00,,,0.00,Wunderground v.1.15,2013-04-02 00:50:00,
2013-04-01 19:55:00,30.0,12.7,30.17,NW,320,3.0,6.0,48,0.00,,,0.00,Wunderground v.1.15,2013-04-02 00:55:00,
2013-04-01 20:00:00,29.9,13.5,30.16,NNW,339,3.0,3.0,50,0.00,,,0.00,Wunderground v.1.15,2013-04-02 01:00:00,
2013-04-01 20:05:00,29.8,12.9,30.17,NNW,331,2.0,3.0,49,0.00,,,0.00,Wunderground v.1.15,2013-04-02 01:05:00,
2013-04-01 20:15:00,29.6,13.2,30.17,NW,312,2.0,7.0,50,0.00,,,0.00,Wunderground v.1.15,2013-04-02 01:15:00,
2013-04-01 20:20:00,29.5,13.1,30.17,WNW,300,3.0,3.0,50,0.00,,,0.00,Wunderground v.1.15,2013-04-02 01:20:00,
2013-04-01 20:25:00,29.4,13.0,30.17,NNW,347,3.0,6.0,50,0.00,,,0.00,Wunderground v.1.15,2013-04-02 01:25:00,
2013-04-01 20:30:00,29.3,12.9,30.17,NNW,348,3.0,3.0,50,0.00,,,0.00,Wunderground v.1.15,2013-04-02 01:30:00,
2013-04-01 20:35:00,29.3,12.9,30.17,NW,305,5.0,5.0,50,0.00,,,0.00,Wunderground v.1.15,2013-04-02 01:35:00,
2013-04-01 20:40:00,29.3,13.4,30.18,North,350,4.0,4.0,51,0.00,,,0.00,Wunderground v.1.15,2013-04-02 01:40:00,
2013-04-01 20:45:00,29.2,12.8,30.18,NNW,347,4.0,7.0,50,0.00,,,0.00,Wunderground v.1.15,2013-04-02 01:45:00,
2013-04-01 20:50:00,29.1,13.2,30.18,North,350,4.0,4.0,51,0.00,,,0.00,Wunderground v.1.15,2013-04-02 01:50:00,
2013-04-01 20:55:00,29.0,12.7,30.18,NNW,344,3.0,7.0,50,0.00,,,0.00,Wunderground v.1.15,2013-04-02 01:55:00,
2013-04-01 21:00:00,29.0,13.1,30.18,North,349,2.0,2.0,51,0.00,,,0.00,Wunderground v.1.15,2013-04-02 02:00:00,
2013-04-01 21:05:00,28.8,12.9,30.18,NNW,347,2.0,11.0,51,0.00,,,0.00,Wunderground v.1.15,2013-04-02 02:05:00,
2013-04-01 21:10:00,28.8,12.9,30.19,NNW,333,3.0,3.0,51,0.00,,,0.00,Wunderground v.1.15,2013-04-02 02:10:00,
2013-04-01 21:15:00,28.8,13.4,30.19,North,355,3.0,3.0,52,0.00,,,0.00,Wunderground v.1.15,2013-04-02 02:15:00,
2013-04-01 21:20:00,28.6,13.6,30.19,NW,315,1.0,1.0,53,0.00,,,0.00,Wunderground v.1.15,2013-04-02 02:20:00,
2013-04-01 21:25:00,28.4,13.4,30.19,NNW,344,1.0,1.0,53,0.00,,,0.00,Wunderground v.1.15,2013-04-02 02:25:00,
2013-04-01 21:30:00,28.3,13.3,30.19,NNW,329,1.0,1.0,53,0.00,,,0.00,Wunderground v.1.15,2013-04-02 02:30:00,
2013-04-01 21:35:00,28.2,13.2,30.20,NW,324,1.0,1.0,53,0.00,,,0.00,Wunderground v.1.15,2013-04-02 02:35:00,
2013-04-01 21:40:00,28.0,13.5,30.20,NNW,346,1.0,2.0,54,0.00,,,0.00,Wunderground v.1.15,2013-04-02 02:40:00,
2013-04-01 21:45:00,27.9,13.4,30.20,NNW,346,1.0,2.0,54,0.00,,,0.00,Wunderground v.1.15,2013-04-02 02:45:00,
2013-04-01 21:55:00,27.7,13.6,30.21,NNW,327,1.0,1.0,55,0.00,,,0.00,Wunderground v.1.15,2013-04-02 02:55:00,
2013-04-01 22:00:00,27.6,13.9,30.21,NNW,332,0.0,2.0,56,0.00,,,0.00,Wunderground v.1.15,2013-04-02 03:00:00,
2013-04-01 22:05:00,27.6,13.5,30.21,North,350,1.0,2.0,55,0.00,,,0.00,Wunderground v.1.15,2013-04-02 03:05:00,
2013-04-01 22:10:00,27.5,13.8,30.21,North,351,1.0,1.0,56,0.00,,,0.00,Wunderground v.1.15,2013-04-02 03:10:00,
2013-04-01 22:15:00,27.4,13.7,30.21,North,360,0.0,1.0,56,0.00,,,0.00,Wunderground v.1.15,2013-04-02 03:15:00,
2013-04-01 22:20:00,27.3,14.1,30.21,North,350,1.0,1.0,57,0.00,,,0.00,Wunderground v.1.15,2013-04-02 03:20:00,
2013-04-01 22:25:00,27.2,14.0,30.21,North,355,1.0,1.0,57,0.00,,,0.00,Wunderground v.1.15,2013-04-02 03:25:00,
2013-04-01 22:30:00,27.2,14.0,30.21,NNW,344,1.0,2.0,57,0.00,,,0.00,Wunderground v.1.15,2013-04-02 03:30:00,
2013-04-01 22:35:00,27.1,14.3,30.21,NNW,337,1.0,2.0,58,0.00,,,0.00,Wunderground v.1.15,2013-04-02 03:35:00,
2013-04-01 22:45:00,26.9,14.1,30.21,NNW,337,0.0,2.0,58,0.00,,,0.00,Wunderground v.1.15,2013-04-02 03:45:00,
2013-04-01 22:50:00,26.7,14.3,30.21,NNW,338,0.0,0.0,59,0.00,,,0.00,Wunderground v.1.15,2013-04-02 03:50:00,
2013-04-01 22:55:00,26.6,14.6,30.21,NNW,338,0.0,0.0,60,0.00,,,0.00,Wunderground v.1.15,2013-04-02 03:55:00,
2013-04-01 23:00:00,26.3,14.7,30.21,NNW,338,0.0,0.0,61,0.00,,,0.00,Wunderground v.1.15,2013-04-02 04:00:00,
2013-04-01 23:05:00,26.2,14.6,30.21,NNW,337,0.0,0.0,61,0.00,,,0.00,Wunderground v.1.15,2013-04-02 04:05:00,
2013-04-01 23:15:00,25.8,14.2,30.21,NNW,333,0.0,0.0,61,0.00,,,0.00,Wunderground v.1.15,2013-04-02 04:15:00,
2013-04-01 23:20:00,25.7,14.1,30.21,NNW,333,0.0,0.0,61,0.00,,,0.00,Wunderground v.1.15,2013-04-02 04:20:00,
2013-04-01 23:25:00,25.5,14.3,30.21,NNW,333,0.0,0.0,62,0.00,,,0.00,Wunderground v.1.15,2013-04-02 04:25:00,
2013-04-01 23:30:00,25.3,14.1,30.21,NNW,333,0.0,0.0,62,0.00,,,0.00,Wunderground v.1.15,2013-04-02 04:30:00,
2013-04-01 23:35:00,25.2,14.0,30.21,NNW,333,0.0,0.0,62,0.00,,,0.00,Wunderground v.1.15,2013-04-02 04:35:00,
2013-04-01 23:40:00,25.1,14.3,30.22,NNW,333,0.0,0.0,63,0.00,,,0.00,Wunderground v.1.15,2013-04-02 04:40:00,
2013-04-01 23:45:00,24.9,14.1,30.22,NNW,333,0.0,0.0,63,0.00,,,0.00,Wunderground v.1.15,2013-04-02 04:45:00,
2013-04-01 23:50:00,24.8,14.0,30.22,NNW,333,0.0,0.0,63,0.00,,,0.00,Wunderground v.1.15,2013-04-02 04:50:00,
2013-04-01 23:55:00,24.6,14.1,30.22,NNW,333,0.0,0.0,64,0.00,,,0.00,Wunderground v.1.15,2013-04-02 04:55:00,